Weather in Adiyaman

Turkey     37°45′50″N   38°16′35″E
temp.,
°C
wind,
m/s
gust,
m/s
humid.,
%
clouds,
%
prec.,
mm/h
press.,
hPa
HPBL,
m
6 may, thu
thu600:00+20n22324 0.0 100711
03:00+17nnw11330 0.0 100811
06:00+17nnw11382 0.0 100911
09:00+23sse212688 0.0 1009583
12:00+26ssw4323100 0.0 10082125
15:00+27ssw5624100 0.0 10062982
18:00+21n56465 0.3 1007259
21:00+18nnw2253100 0.3 100819
7 may, fri
fri700:00+19nnw81354100 0.2 1009509
03:00+17n3461100 0.7 100891
06:00+16nnw33620 0.0 100944
09:00+22n35360 0.0 10101138
12:00+26n44270 0.0 10101963
15:00+28nnw34220 0.0 10092453
18:00+26nnw69230 0.0 1009682
21:00+22nnw610275 0.0 1012179
8 may, sat
sat800:00+20n44330 0.0 101243
03:00+18nnw323716 0.0 101218
06:00+17n22425 0.0 101315
09:00+24s11273 0.0 1013659
12:00+28ssw34206 0.0 10121847
15:00+31ssw3616100 0.0 10103206
18:00+28wsw592685 0.0 1009350
21:00+24wnw3436100 0.0 101141
9 may, sun
sun900:00+23nnw013876 0.0 101011
03:00+20ese114497 0.0 100911
06:00+20e1147100 0.0 101011
09:00+24se1135100 0.0 1010313
12:00+28sw343058 0.0 10091147
15:00+32sw1013193 0.0 10042973
18:00+29wsw6102812 0.2 1004547
21:00+20n59572 2.6 1009266
10 may, mon
mon1000:00+16nnw46521 0.0 1011207
03:00+12n33415 0.0 101336
06:00+10n34348 0.0 101450
09:00+17n46135 0.0 1013723
12:00+22n451127 0.0 10121189
15:00+24nnw441231 0.0 10111628
18:00+22n46171 0.0 1010467
21:00+17n33210 0.0 101132